When you browse on this site, cookies collect data to enhance your experience and personalize the content and advertising you see.
Visit our Privacy Policy to learn more. By continuing to use the site, you agree to this use of cookies and data.
  • In Spain
  • List of Countries
  • For 7 days
  • Water Temperature
  • Satellite Maps
  • Weather Map
  • Weather Widgets
  • user-avatar
    Login

    Hourly Weather Casper

    Today, 19 June, Wednesday

    Time Temperature Precipitation Wind Pressure Humidity
    00:00 +14°C° 0.7 mm 3 mps 628 mmHg 76%
    01:00 +13°C° 0.7 mm 3 mps 628 mmHg 74%
    02:00 +13°C° 0.7 mm 3 mps 628 mmHg 72%
    03:00 +13°C° 0.1 mm 3 mps 627 mmHg 73%
    04:00 +13°C° 0.1 mm 3 mps 627 mmHg 75%
    05:00 +12°C° 0.1 mm 4 mps 627 mmHg 76%
    06:00 +14°C° 0 mm 4 mps 628 mmHg 68%
    07:00 +17°C° 0 mm 4 mps 628 mmHg 61%
    08:00 +19°C° 0 mm 3 mps 629 mmHg 54%
    09:00 +21°C° 0 mm 4 mps 629 mmHg 47%
    10:00 +22°C° 0 mm 4 mps 629 mmHg 40%
    11:00 +25°C° 0 mm 4 mps 629 mmHg 34%
    12:00 +25°C° 0 mm 5 mps 628 mmHg 30%
    13:00 +26°C° 0 mm 5 mps 628 mmHg 26%
    14:00 +27°C° 0 mm 5 mps 628 mmHg 22%
    15:00 +27°C° 0 mm 6 mps 627 mmHg 24%
    16:00 +27°C° 0 mm 6 mps 626 mmHg 26%
    17:00 +27°C° 0 mm 7 mps 626 mmHg 28%
    18:00 +24°C° 0 mm 7 mps 626 mmHg 30%
    19:00 +23°C° 0 mm 7 mps 625 mmHg 31%
    20:00 +21°C° 0 mm 7 mps 625 mmHg 33%
    21:00 +17°C° 0.1 mm 6 mps 625 mmHg 49%
    22:00 +15°C° 0.1 mm 5 mps 625 mmHg 66%
    23:00 +12°C° 0.1 mm 4 mps 625 mmHg 82%

    Tomorrow, 20 June, Thursday

    Time Temperature Precipitation Wind Pressure Humidity
    00:00 +12°C° 0 mm 3 mps 625 mmHg 82%
    01:00 +12°C° 0 mm 2 mps 625 mmHg 83%
    02:00 +12°C° 0 mm 1 mps 625 mmHg 83%
    03:00 +12°C° 0 mm 2 mps 625 mmHg 77%
    04:00 +12°C° 0 mm 2 mps 625 mmHg 72%
    05:00 +12°C° 0 mm 2 mps 625 mmHg 66%
    06:00 +13°C° 0 mm 4 mps 625 mmHg 53%
    07:00 +15°C° 0 mm 5 mps 626 mmHg 41%
    08:00 +16°C° 0 mm 7 mps 626 mmHg 28%
    09:00 +18°C° 0 mm 8 mps 626 mmHg 24%
    10:00 +21°C° 0 mm 9 mps 626 mmHg 20%
    11:00 +22°C° 0 mm 10 mps 627 mmHg 16%
    12:00 +23°C° 0 mm 10 mps 626 mmHg 18%
    13:00 +24°C° 0 mm 11 mps 626 mmHg 20%
    14:00 +26°C° 0 mm 11 mps 625 mmHg 21%
    15:00 +23°C° 0 mm 11 mps 624 mmHg 28%
    16:00 +21°C° 0 mm 10 mps 623 mmHg 35%
    17:00 +18°C° 0 mm 9 mps 623 mmHg 41%
    18:00 +16°C° 0.1 mm 7 mps 623 mmHg 46%
    19:00 +15°C° 0.1 mm 4 mps 623 mmHg 52%
    20:00 +14°C° 0.1 mm 1 mps 623 mmHg 57%
    21:00 +13°C° 0.1 mm 3 mps 623 mmHg 60%
    22:00 +12°C° 0.1 mm 4 mps 623 mmHg 64%
    23:00 +11°C° 0.1 mm 6 mps 623 mmHg 67%

    Day after tomorrow, 21 June, Friday

    Time Temperature Precipitation Wind Pressure Humidity
    00:00 +10°C° 0 mm 7 mps 623 mmHg 56%
    01:00 +10°C° 0 mm 8 mps 623 mmHg 45%
    02:00 +8°C° 0 mm 9 mps 624 mmHg 34%
    03:00 +7°C° 0 mm 9 mps 624 mmHg 35%
    04:00 +7°C° 0 mm 9 mps 624 mmHg 37%
    05:00 +6°C° 0 mm 9 mps 624 mmHg 38%
    06:00 +8°C° 0 mm 9 mps 625 mmHg 36%
    07:00 +10°C° 0 mm 9 mps 626 mmHg 34%
    08:00 +11°C° 0 mm 8 mps 627 mmHg 32%
    09:00 +13°C° 0 mm 8 mps 627 mmHg 28%
    10:00 +15°C° 0 mm 8 mps 627 mmHg 24%
    11:00 +17°C° 0 mm 7 mps 628 mmHg 20%
    12:00 +18°C° 0 mm 8 mps 628 mmHg 18%
    13:00 +20°C° 0 mm 8 mps 628 mmHg 17%
    14:00 +21°C° 0 mm 9 mps 628 mmHg 15%
    15:00 +21°C° 0 mm 8 mps 628 mmHg 16%
    16:00 +21°C° 0 mm 8 mps 628 mmHg 16%
    17:00 +21°C° 0 mm 7 mps 628 mmHg 17%
    18:00 +19°C° 0 mm 6 mps 628 mmHg 22%
    19:00 +16°C° 0 mm 5 mps 628 mmHg 28%
    20:00 +16°C° 0 mm 3 mps 628 mmHg 33%
    21:00 +13°C° 0 mm 3 mps 628 mmHg 43%
    22:00 +12°C° 0 mm 3 mps 628 mmHg 53%
    23:00 +11°C° 0 mm 3 mps 628 mmHg 63%

    22 June, Saturday

    Time Temperature Precipitation Wind Pressure Humidity
    00:00 +10°C° 0 mm 3 mps 629 mmHg 65%
    01:00 +10°C° 0 mm 3 mps 629 mmHg 67%
    02:00 +9°C° 0 mm 2 mps 629 mmHg 69%
    03:00 +8°C° 0 mm 2 mps 628 mmHg 72%
    04:00 +8°C° 0 mm 2 mps 628 mmHg 74%
    05:00 +7°C° 0 mm 2 mps 628 mmHg 76%
    06:00 +9°C° 0 mm 3 mps 629 mmHg 69%
    07:00 +11°C° 0 mm 3 mps 629 mmHg 63%
    08:00 +12°C° 0 mm 3 mps 630 mmHg 56%
    09:00 +14°C° 0 mm 3 mps 630 mmHg 52%
    10:00 +15°C° 0 mm 4 mps 630 mmHg 47%
    11:00 +17°C° 0 mm 4 mps 631 mmHg 42%
    12:00 +18°C° 0 mm 4 mps 631 mmHg 40%
    13:00 +18°C° 0 mm 4 mps 631 mmHg 38%
    14:00 +19°C° 0 mm 3 mps 630 mmHg 35%
    15:00 +19°C° 0 mm 4 mps 630 mmHg 38%
    16:00 +18°C° 0 mm 4 mps 630 mmHg 40%
    17:00 +18°C° 0 mm 4 mps 630 mmHg 42%
    18:00 +17°C° 0 mm 4 mps 630 mmHg 48%
    19:00 +16°C° 0 mm 3 mps 629 mmHg 53%
    20:00 +15°C° 0 mm 2 mps 629 mmHg 59%
    21:00 +14°C° 0 mm 2 mps 629 mmHg 63%
    22:00 +13°C° 0 mm 1 mps 629 mmHg 67%
    23:00 +12°C° 0 mm 1 mps 628 mmHg 71%

    23 June, Sunday

    Time Temperature Precipitation Wind Pressure Humidity
    00:00 +12°C° 0 mm 1 mps 628 mmHg 72%
    01:00 +11°C° 0 mm 1 mps 627 mmHg 73%
    02:00 +11°C° 0 mm 1 mps 627 mmHg 74%
    03:00 +11°C° 0 mm 1 mps 627 mmHg 75%
    04:00 +11°C° 0 mm 1 mps 627 mmHg 75%
    05:00 +10°C° 0 mm 2 mps 627 mmHg 76%
    06:00 +13°C° 0 mm 2 mps 628 mmHg 67%
    07:00 +14°C° 0 mm 3 mps 628 mmHg 58%
    08:00 +17°C° 0 mm 3 mps 629 mmHg 49%
    09:00 +18°C° 0 mm 3 mps 629 mmHg 44%
    10:00 +19°C° 0 mm 3 mps 629 mmHg 38%
    11:00 +21°C° 0 mm 4 mps 629 mmHg 33%
    12:00 +21°C° 0 mm 4 mps 629 mmHg 32%
    13:00 +22°C° 0 mm 4 mps 629 mmHg 30%
    14:00 +22°C° 0 mm 4 mps 629 mmHg 29%
    15:00 +23°C° 0 mm 4 mps 628 mmHg 27%
    16:00 +23°C° 0 mm 4 mps 628 mmHg 25%
    17:00 +25°C° 0 mm 3 mps 628 mmHg 23%
    18:00 +21°C° 0 mm 3 mps 628 mmHg 31%
    19:00 +19°C° 0 mm 3 mps 627 mmHg 39%
    20:00 +17°C° 0 mm 3 mps 627 mmHg 47%
    21:00 +17°C° 0.1 mm 3 mps 627 mmHg 49%
    22:00 +16°C° 0.1 mm 3 mps 627 mmHg 51%
    23:00 +16°C° 0.1 mm 3 mps 627 mmHg 53%

    24 June, Monday

    Time Temperature Precipitation Wind Pressure Humidity
    00:00 +14°C° 0 mm 3 mps 626 mmHg 52%
    01:00 +14°C° 0 mm 3 mps 626 mmHg 51%
    02:00 +13°C° 0 mm 3 mps 626 mmHg 51%
    03:00 +13°C° 0 mm 3 mps 626 mmHg 53%
    04:00 +13°C° 0 mm 3 mps 626 mmHg 55%
    05:00 +12°C° 0 mm 3 mps 626 mmHg 56%
    06:00 +15°C° 0 mm 4 mps 627 mmHg 50%
    07:00 +17°C° 0 mm 5 mps 627 mmHg 43%
    08:00 +20°C° 0 mm 7 mps 628 mmHg 36%
    09:00 +22°C° 0 mm 7 mps 629 mmHg 32%
    10:00 +23°C° 0 mm 7 mps 629 mmHg 28%
    11:00 +24°C° 0 mm 7 mps 629 mmHg 24%
    12:00 +26°C° 0 mm 8 mps 629 mmHg 22%
    13:00 +27°C° 0 mm 8 mps 629 mmHg 19%
    14:00 +28°C° 0 mm 8 mps 629 mmHg 17%
    15:00 +28°C° 0 mm 8 mps 629 mmHg 18%
    16:00 +28°C° 0 mm 7 mps 629 mmHg 18%
    17:00 +28°C° 0 mm 7 mps 629 mmHg 19%
    18:00 +26°C° 0 mm 6 mps 629 mmHg 24%
    19:00 +23°C° 0 mm 6 mps 629 mmHg 29%
    20:00 +21°C° 0 mm 5 mps 629 mmHg 34%
    21:00 +20°C° 0 mm 5 mps 629 mmHg 40%
    22:00 +19°C° 0 mm 4 mps 628 mmHg 45%
    23:00 +17°C° 0 mm 3 mps 628 mmHg 51%
    Show more